Wind_Gust
20 25 30 33 29 25 16 20 13 12 12 20 17 18 18 18 16 9 12 10 18 22 27 25 21 24 28 28 18 20 12 12 14 16 19 22 24 25 27 27 24 23 21 9 14 14 16 17 18 18 19 21 21 22 22 20 21 21 24 21 22 21 20 21 20 19 16 16 14 11 12 12 10 10 10 10 11 12 12 13 14 15 14 14 13 12
20 26 30 23 10 16 18 17 17 9 9 22 20 20 17 16 18 20 22 16 12 22 20 20 20 25 25 24 21 16 14 17 18 19 22 24 25 26 28 29 27 21 10 11 14 16 17 17 18 19 21 21 24 23 22 22 24 23 22 23 22 18 20 21 20 18 17 14 15 15 14 9 11 12 14 13 13 13 13 14 14 13 14 14 13 11
29 37 24 14 11 16 16 19 21 14 11 11 23 21 20 20 9 10 9 8 11 18 20 12 24 23 23 24 17 17 19 18 20 25 27 27 28 29 28 28 26 18 15 14 15 17 18 18 20 20 21 24 24 24 23 22 23 24 25 25 23 22 22 20 19 20 17 15 14 12 11 13 11 9 11 13 13 14 15 13 13 13 13 13 12 12
29 28 15 16 13 19 20 21 23 18 9 14 15 21 27 14 21 23 17 9 12 23 14 15 17 19 21 20 12 8 19 12 12 19 23 27 30 29 30 30 29 27 24 22 22 21 19 20 21 20 22 25 23 22 23 23 26 27 27 25 25 23 21 19 19 16 16 16 15 12 14 13 11 13 14 14 14 14 15 14 13 13 13 13 12 12
17 13 19 21 14 21 22 22 26 26 23 11 10 16 18 16 20 12 19 10 6 10 9 11 14 16 15 19 20 13 10 9 10 12 12 19 22 27 27 26 25 29 29 28 22 20 20 21 23 24 22 23 25 25 25 27 30 29 30 27 26 23 22 20 20 19 17 17 16 16 16 16 17 14 13 15 13 14 14 14 13 13 13 13 13 12
14 10 24 27 22 21 24 26 30 28 24 18 14 11 12 17 18 9 6 12 18 20 18 16 21 25 13 20 21 14 13 14 12 18 20 22 25 24 23 25 27 26 26 24 23 22 22 21 19 20 23 24 24 25 23 27 29 26 28 27 25 20 19 23 21 21 21 19 22 24 19 17 12 15 17 20 19 17 17 16 12 12 14 14 12 12
19 11 22 29 28 22 23 24 23 26 27 22 21 17 11 7 9 7 6 16 24 28 14 8 25 21 10 17 15 13 15 18 12 17 21 24 27 27 29 28 29 30 27 24 19 18 20 22 22 23 25 25 25 23 21 24 27 26 24 24 24 21 21 22 24 22 20 22 22 21 21 21 20 21 20 13 16 18 15 15 15 13 13 14 14 12
21 14 19 23 30 30 26 27 24 29 25 29 12 18 14 10 9 7 6 12 9 9 11 7 19 23 19 16 8 8 14 16 14 15 18 22 25 27 28 28 26 28 25 26 25 23 24 25 27 26 24 24 24 20 20 24 22 22 20 20 21 18 20 20 22 23 25 27 22 24 23 17 16 21 21 19 17 16 17 17 16 16 15 12 13 14
26 19 19 23 24 31 32 20 17 22 28 16 10 16 18 16 13 8 9 7 7 7 24 14 10 20 27 14 9 11 14 13 16 18 21 23 24 28 30 29 27 26 27 27 27 25 28 29 26 22 22 21 21 21 21 23 21 14 16 17 16 17 19 20 24 26 24 21 23 23 21 19 13 15 18 19 18 18 18 19 17 16 15 14 14 14
18 21 16 20 24 27 16 20 22 24 24 11 18 15 15 13 7 9 9 9 8 11 21 16 17 29 18 13 12 9 12 18 20 23 24 25 26 26 26 26 28 26 25 27 27 23 23 21 20 20 20 21 22 19 19 17 21 21 17 19 20 20 21 21 22 24 22 20 19 17 19 20 18 18 18 18 19 17 18 19 16 14 15 15 14 13
7 17 18 20 25 16 20 19 23 25 14 10 17 22 17 13 13 7 7 10 11 22 21 10 10 16 25 17 21 21 20 16 17 17 17 18 19 20 21 23 26 28 27 27 27 23 21 21 21 20 24 24 21 20 20 19 20 22 21 18 21 23 22 21 22 22 22 22 16 17 16 18 21 21 22 20 18 19 17 19 14 14 14 13 15 14
10 10 23 17 15 15 21 19 19 25 15 20 21 27 18 14 9 12 11 8 20 23 9 14 16 12 26 13 14 16 9 16 20 18 21 20 23 25 22 24 24 23 24 25 26 26 23 21 22 22 23 23 22 22 22 19 19 21 23 20 22 21 20 20 22 20 22 23 19 16 16 17 20 23 24 22 21 22 20 17 16 13 14 14 14 13
17 12 10 12 19 22 28 24 18 26 16 23 21 25 31 27 22 26 21 24 29 20 8 8 16 13 31 17 9 11 16 16 15 17 21 21 23 23 22 23 22 22 23 27 27 26 26 24 24 24 23 22 22 22 24 18 18 19 20 22 23 23 20 21 24 23 23 18 16 18 18 18 20 22 22 23 21 17 19 18 17 15 16 15 15 13
15 8 14 15 20 26 26 33 32 32 29 25 31 34 34 34 32 30 30 16 9 13 8 7 9 25 12 16 22 20 20 21 20 21 15 15 19 20 21 19 20 24 26 27 26 27 26 24 23 23 23 22 22 22 21 20 22 20 20 21 22 21 19 18 19 20 21 17 16 16 20 22 22 20 20 23 22 19 19 17 18 15 17 17 16 14
25 20 23 24 30 27 33 27 30 23 32 30 8 26 20 22 31 27 29 29 19 13 14 8 16 18 16 22 13 27 25 13 11 13 10 11 16 15 13 16 19 24 25 27 28 29 27 25 24 24 23 24 24 23 22 20 21 21 19 20 20 19 19 18 19 18 23 19 18 13 17 17 18 20 21 21 19 20 18 14 16 15 15 17 16 16
24 15 12 21 7 28 28 16 19 21 28 21 12 11 13 25 13 20 15 14 15 13 12 17 22 13 16 10 9 9 10 12 9 11 14 16 13 16 18 22 26 27 28 27 25 26 25 21 23 23 23 24 23 24 22 21 21 20 19 20 20 20 19 19 19 17 19 18 19 16 14 17 16 17 18 17 17 14 15 15 17 17 16 17 17 15
22 24 10 27 12 29 26 20 22 25 37 28 18 34 21 11 13 13 6 9 6 8 23 10 14 20 17 16 8 7 9 9 8 11 16 16 17 18 19 23 25 27 27 27 27 27 25 20 24 24 23 23 22 23 22 21 21 21 22 21 20 20 19 19 19 19 20 20 20 20 17 16 17 20 19 21 18 18 16 15 16 18 17 16 15 16
27 20 9 26 19 21 24 22 14 25 12 27 29 20 11 9 12 11 16 9 16 21 21 11 16 17 17 22 10 9 11 10 10 13 14 17 18 21 22 25 28 27 25 25 25 23 25 22 24 22 22 21 22 21 20 20 19 22 22 22 22 22 21 20 19 19 18 17 16 15 16 15 17 20 20 19 20 18 18 16 17 17 17 15 15 17
15 19 16 21 23 19 13 25 16 15 12 27 23 10 32 22 21 10 10 12 15 18 15 11 8 13 20 24 9 14 17 15 15 14 18 21 21 23 22 23 22 22 23 26 26 27 26 25 24 21 20 22 21 19 20 22 23 23 21 22 22 22 22 21 21 21 18 16 15 16 17 17 19 17 19 17 18 19 19 19 17 16 17 16 15 17
10 16 16 12 19 20 22 33 35 33 9 7 14 23 11 12 12 16 24 10 15 8 8 10 10 18 21 26 20 18 19 17 18 18 21 24 24 23 24 25 28 28 27 28 26 26 24 24 24 24 25 25 24 22 22 22 23 24 24 23 22 21 21 21 22 25 24 20 20 19 20 20 21 17 18 18 19 18 18 19 19 19 16 15 15 16
7 8 16 20 13 21 31 36 32 31 31 26 31 26 17 11 9 13 9 10 11 13 14 12 11 15 17 18 20 23 16 19 24 26 24 24 23 23 24 27 27 26 26 26 26 26 24 23 23 22 22 24 23 21 20 23 25 24 24 23 22 23 21 21 22 22 20 22 21 23 23 26 22 21 18 19 18 19 17 16 18 17 16 17 17 18
9 8 9 19 24 28 20 17 9 23 26 23 26 25 22 17 18 26 21 10 8 8 10 12 17 16 19 10 11 9 9 15 18 16 19 21 22 22 22 19 21 23 21 20 22 23 21 21 21 22 23 22 22 21 21 23 23 23 23 21 23 22 21 21 21 22 23 21 22 22 24 25 22 22 20 20 18 18 17 17 16 17 17 18 18 17
12 8 8 19 20 17 11 19 16 20 22 16 25 17 23 16 11 25 21 16 8 8 10 7 6 13 10 7 7 8 8 12 16 19 18 18 18 18 17 17 17 19 20 20 21 21 20 22 20 22 23 23 22 22 22 20 23 25 21 21 21 21 19 21 21 21 22 22 21 22 25 22 23 22 21 20 19 18 17 16 15 15 20 19 18 17
9 10 10 17 16 6 9 9 15 19 21 16 23 16 27 31 18 14 15 13 19 9 8 7 7 16 9 7 10 10 9 10 14 18 18 18 17 17 17 18 18 19 20 21 23 18 21 21 20 21 22 24 23 23 23 24 24 22 22 21 22 23 20 19 21 21 20 22 22 20 23 22 21 20 19 20 19 18 16 16 15 17 19 18 18 19
18 9 9 24 24 15 14 15 18 18 30 30 29 19 20 15 11 7 9 8 16 13 11 12 11 14 8 13 11 9 10 13 15 17 19 21 19 18 18 19 20 21 23 22 21 21 19 20 21 22 21 23 22 21 21 22 22 22 21 22 24 25 22 22 21 20 20 22 22 18 20 20 19 21 19 19 18 19 17 18 18 17 19 19 19 18
8 8 9 19 26 26 26 28 35 36 38 25 14 18 19 25 22 13 15 12 19 8 11 15 16 20 12 10 10 10 11 11 12 16 17 18 20 20 19 21 21 23 25 24 22 21 22 21 19 20 20 20 21 20 21 21 20 20 21 23 21 22 23 22 20 21 22 20 21 20 20 19 19 20 20 20 20 19 18 18 17 17 16 18 19 16
8 6 7 10 24 31 23 14 17 18 19 27 17 22 19 22 24 16 11 12 21 10 15 24 20 15 15 8 8 8 12 15 15 17 20 19 18 20 21 22 22 23 24 23 22 21 21 21 22 21 23 19 19 19 20 21 23 22 22 21 21 24 24 22 21 23 24 22 21 21 19 19 19 21 19 19 18 18 18 18 17 18 18 16 17 17
7 8 8 10 11 12 12 14 21 24 25 20 19 20 17 19 16 17 16 19 10 18 13 15 9 10 16 7 8 9 10 11 13 16 16 17 19 21 22 20 16 20 20 18 20 22 24 23 23 20 20 20 21 21 22 22 24 23 22 21 19 19 22 23 23 25 24 27 21 20 20 18 18 19 19 19 19 18 17 16 16 16 15 16 17 18
9 9 8 7 11 13 11 10 25 26 24 22 25 20 20 19 15 21 21 14 11 15 19 8 9 10 11 9 8 12 11 13 13 14 15 16 19 20 21 22 22 22 24 21 21 22 24 24 22 21 20 21 22 21 20 22 20 20 22 22 23 21 24 23 26 29 29 27 23 20 20 19 18 18 19 20 20 19 17 17 16 16 16 16 17 17
12 17 11 9 11 6 12 12 13 27 22 23 24 21 21 17 20 20 20 12 17 14 8 8 11 15 12 7 10 11 10 10 12 13 16 19 21 23 24 23 22 20 24 24 21 21 21 23 22 20 20 21 24 23 21 22 21 21 23 25 23 24 24 26 28 29 26 25 27 26 20 20 19 20 19 20 19 18 17 17 17 17 17 17 18 18
14 15 7 7 8 6 6 11 11 20 20 27 19 21 18 19 18 19 13 8 7 14 7 7 7 14 11 9 8 9 9 13 13 16 17 18 20 22 23 23 22 22 22 23 21 22 20 22 22 21 21 22 24 24 24 23 21 20 25 25 26 25 27 26 25 23 26 26 25 26 21 20 21 21 20 18 19 18 18 18 17 17 17 17 17 18
10 11 5 5 6 7 6 16 14 16 22 20 17 15 19 18 18 13 17 15 14 18 8 7 12 17 10 10 10 10 13 18 17 17 17 17 19 21 24 23 23 22 21 21 22 21 20 19 21 21 22 22 23 24 24 24 20 23 22 19 23 24 23 22 23 25 25 27 27 26 22 20 20 20 20 20 20 19 17 17 17 17 18 18 18 17
6 7 11 6 8 6 7 11 16 15 16 13 12 20 21 17 12 12 8 8 18 13 13 12 20 10 9 13 13 13 15 18 18 18 17 15 18 19 19 19 19 19 19 20 19 19 19 19 21 22 21 22 21 24 20 22 24 25 26 20 18 21 24 23 22 22 27 26 28 27 20 21 21 20 19 19 19 19 19 18 17 18 18 18 17 18
6 6 10 5 8 6 8 17 16 22 19 16 10 7 17 19 18 16 16 15 14 14 13 12 9 9 10 13 13 16 17 19 20 18 17 20 21 18 17 16 17 15 15 15 17 20 17 17 19 21 21 21 20 21 19 21 24 22 21 24 20 18 20 25 24 24 27 25 25 25 21 19 20 20 20 20 20 18 18 19 17 16 17 18 18 19
6 5 9 5 7 11 9 18 22 16 12 8 7 8 7 7 6 13 7 6 8 8 7 7 7 9 10 9 10 12 12 10 14 18 18 19 21 24 24 22 23 22 20 18 20 20 21 22 23 22 22 21 22 20 21 19 21 22 20 23 26 21 20 23 29 27 27 28 27 27 24 21 20 21 21 21 21 19 18 19 19 19 18 19 19 19
5 4 6 6 8 11 15 19 25 11 8 7 7 7 7 8 6 9 9 8 7 10 7 7 8 9 10 10 10 10 11 10 12 8 15 20 21 23 24 23 24 26 27 25 23 23 25 27 27 25 23 21 24 21 20 23 21 22 21 19 26 28 22 20 24 27 29 28 28 24 23 23 22 22 21 20 20 20 19 18 18 19 17 18 17 16
10 7 8 7 6 18 10 10 11 7 9 9 7 7 8 8 8 8 11 6 6 5 9 9 10 10 11 13 11 12 13 12 9 9 11 18 17 18 22 23 25 25 26 22 22 25 30 29 25 22 24 23 22 24 21 21 24 23 22 22 22 25 24 22 24 27 26 27 26 23 22 23 24 23 22 21 21 20 19 18 18 17 17 18 18 18
13 14 8 11 8 10 20 20 17 11 10 8 6 7 8 7 7 7 9 9 5 6 9 10 15 14 13 16 14 15 16 17 14 19 18 18 17 13 13 17 19 20 21 21 20 19 18 19 21 23 28 24 22 22 24 23 23 25 25 22 22 23 26 22 25 26 26 24 23 22 22 22 23 23 23 21 20 19 18 18 18 18 18 20 20 19
8 8 5 12 11 8 13 18 12 11 8 9 7 8 5 7 7 10 9 10 7 6 9 12 16 16 16 18 18 17 19 16 16 19 20 21 20 19 18 16 19 21 23 23 24 23 22 18 21 21 22 26 24 19 22 23 24 27 29 25 22 21 22 21 21 24 25 23 21 21 21 22 22 22 22 22 20 19 19 18 18 18 17 18 18 18
8 8 8 15 9 7 11 13 10 9 14 4 7 9 9 6 10 10 17 15 7 8 8 12 15 17 17 16 17 20 19 15 15 11 19 23 23 19 21 21 20 20 21 21 21 23 23 21 22 21 21 23 25 26 25 25 26 27 32 25 21 20 20 20 22 25 24 23 23 20 21 20 21 21 21 21 19 17 17 17 18 18 18 17 18 19
11 10 13 8 7 6 11 11 9 10 7 7 9 12 8 7 9 15 15 9 8 8 8 13 15 17 18 19 20 20 13 11 12 14 22 19 20 18 18 18 20 23 23 21 21 19 24 22 23 24 24 24 25 23 24 24 25 29 28 27 27 23 20 23 25 24 23 23 22 21 21 19 20 21 19 19 19 16 17 17 19 19 19 18 18 19
6 4 5 8 11 8 6 14 10 8 9 9 10 11 8 8 14 9 10 7 9 12 6 11 14 16 16 18 18 13 10 12 14 12 19 21 21 18 19 20 20 20 22 20 21 21 22 23 20 23 20 19 23 24 25 25 25 27 28 27 22 18 24 25 27 26 24 24 23 22 21 20 18 19 19 19 20 19 18 17 19 20 19 18 19 19
11 8 8 6 7 7 11 15 10 12 5 8 19 9 7 11 10 9 8 7 8 9 10 8 13 14 16 16 8 8 11 9 11 15 17 19 20 20 20 21 22 21 21 21 20 19 24 21 22 22 21 21 23 24 25 27 26 24 21 22 20 20 27 29 28 26 25 24 23 22 22 20 20 19 19 18 20 21 20 19 19 18 19 20 20 19
7 9 7 6 9 12 9 12 10 9 10 9 12 10 10 9 8 6 5 9 7 7 7 8 10 13 15 16 13 9 8 8 10 10 13 15 16 16 17 19 20 20 20 20 21 19 19 22 19 19 18 22 22 22 23 27 27 23 23 22 21 24 27 26 24 25 24 23 22 22 22 21 20 19 18 19 20 20 21 19 19 19 19 20 21 21
13 7 7 8 7 9 9 11 7 7 11 9 6 6 6 8 6 7 8 8 10 10 6 8 11 10 14 16 12 9 7 8 9 11 13 13 16 18 19 20 21 21 21 20 20 19 17 21 20 19 18 19 21 23 24 27 32 27 24 21 24 23 26 24 24 26 25 23 21 21 21 20 20 19 18 19 20 21 21 20 19 20 18 20 20 20
5 4 5 6 9 6 7 6 9 8 8 12 7 8 8 9 8 8 7 7 8 9 10 11 10 9 10 13 14 8 9 10 9 10 10 10 13 13 15 17 18 18 19 18 18 18 17 18 21 23 22 18 17 19 20 22 28 32 24 25 24 26 26 27 26 25 24 23 22 23 23 22 20 19 19 19 19 20 20 21 20 20 20 20 20 20
6 5 5 9 7 10 15 11 13 11 10 10 13 11 7 6 8 8 10 7 9 10 10 11 11 10 10 13 15 13 9 10 12 12 12 13 13 15 16 17 17 18 18 18 18 17 17 19 19 19 21 22 17 18 16 19 18 22 24 24 23 24 25 26 26 24 24 25 23 22 23 23 21 20 19 18 18 19 20 20 20 20 19 19 20 20
6 6 7 7 5 8 10 6 8 7 6 9 8 13 16 19 18 13 9 9 9 8 6 9 8 7 7 11 12 13 12 11 13 13 14 13 12 14 16 18 17 15 16 18 17 17 18 19 20 20 20 21 20 18 18 17 17 20 22 23 25 25 25 24 25 26 26 25 23 23 23 22 17 20 19 18 19 20 20 19 19 20 20 21 22 22
9 10 5 8 10 7 5 5 9 5 6 9 8 7 10 12 15 16 15 12 11 12 12 12 12 10 9 11 12 15 15 13 14 15 15 15 14 13 15 17 18 16 16 16 17 18 20 18 20 22 22 22 20 21 20 15 17 19 21 24 26 26 26 24 22 23 23 23 22 22 20 22 22 20 20 19 18 17 19 21 20 19 16 12 17 20
7 9 7 8 9 7 7 6 9 6 7 10 11 15 16 14 11 11 12 14 16 15 14 13 15 14 12 9 12 14 17 16 16 17 18 19 20 19 16 14 14 15 15 15 16 15 16 18 21 20 19 18 20 22 22 21 21 19 19 23 25 25 25 24 25 23 24 23 22 22 21 21 21 20 20 20 19 18 15 12 11 9 17 18 7 5
9 6 7 6 9 8 6 7 6 7 7 10 11 13 12 12 11 13 15 13 13 11 12 11 13 15 14 13 10 11 13 16 16 15 22 22 20 21 23 21 19 15 15 16 16 15 16 16 17 17 17 17 15 17 22 23 23 21 20 21 23 24 26 27 24 22 22 23 21 22 21 20 21 21 20 20 21 19 19 17 13 13 12 7 7 7
Wind_Speed
9 11 13 16 14 14 11 13 5 7 6 13 10 11 9 9 8 4 7 5 11 11 15 15 13 14 18 18 11 12 6 6 7 9 10 11 12 12 12 13 13 12 10 4 8 8 9 10 10 11 11 12 13 14 14 12 13 12 13 12 14 12 12 11 10 9 8 8 6 5 6 5 4 4 4 4 5 5 5 6 6 7 6 6 6 6
9 12 15 14 6 10 11 10 9 4 4 14 11 12 7 8 8 11 13 10 6 10 10 13 12 16 15 15 13 10 8 10 11 11 13 14 14 13 16 16 15 11 4 6 8 10 11 10 12 11 11 13 15 14 14 14 14 14 13 14 13 10 12 11 11 9 8 7 6 4 3 3 5 4 5 5 5 5 6 7 7 6 7 7 6 5
13 17 12 8 6 9 10 11 14 6 6 7 11 11 9 8 1 5 4 2 4 9 9 6 14 13 14 15 10 10 11 9 11 13 15 16 16 14 14 15 14 10 8 8 8 10 11 12 13 12 12 13 14 15 14 14 14 15 14 14 13 12 12 11 11 10 8 8 8 7 4 4 4 2 3 4 5 5 6 6 6 6 6 6 5 5
12 13 8 10 8 12 12 13 15 11 3 6 7 9 12 7 10 9 8 4 6 8 6 8 9 9 12 12 7 4 10 5 6 12 15 16 17 17 17 16 13 13 12 13 13 12 12 12 13 12 13 14 13 12 14 14 16 15 14 15 15 13 11 11 11 9 10 10 8 7 8 7 5 4 3 4 4 5 7 7 6 6 6 6 5 5
7 6 11 13 9 13 14 14 16 13 10 5 5 8 7 9 10 5 8 4 1 5 2 4 6 6 7 10 8 6 4 3 4 6 7 11 14 17 17 15 13 14 15 15 13 12 13 13 14 15 13 13 14 14 15 16 16 14 18 17 16 13 13 11 12 11 11 10 9 8 9 8 7 5 5 5 5 6 6 6 6 6 6 6 6 6
6 4 16 17 14 14 15 14 17 15 11 8 8 5 7 11 12 4 2 6 7 8 8 9 6 9 6 12 11 6 5 7 5 10 12 13 14 13 13 15 16 14 14 13 14 13 13 13 12 12 14 15 14 15 14 16 17 16 16 16 15 10 11 12 13 12 12 10 11 11 10 8 6 5 6 9 10 8 8 7 6 6 7 7 6 6
9 6 14 18 17 15 15 13 15 16 12 10 8 10 4 2 4 2 2 8 10 11 4 3 11 2 3 9 8 6 8 11 5 9 12 13 13 14 14 15 15 17 16 14 11 11 13 14 14 14 15 16 15 15 12 14 16 15 9 8 9 10 10 11 14 13 10 13 12 12 12 12 10 10 10 6 8 9 8 6 7 6 6 7 7 5
9 7 12 15 19 16 14 13 13 18 11 11 6 11 9 5 4 3 0 6 3 4 2 2 7 9 6 6 3 1 8 9 7 8 10 12 13 15 16 15 15 15 16 15 16 14 15 16 17 17 15 15 14 12 12 13 10 6 7 5 3 5 9 11 12 14 14 14 12 11 12 9 8 11 11 10 9 8 8 8 8 7 7 5 6 6
17 10 12 14 15 14 14 10 11 14 11 5 5 8 10 9 7 3 3 1 1 2 10 5 4 6 10 4 4 5 7 7 9 10 12 14 15 16 17 15 16 16 16 17 16 16 17 19 17 14 14 13 13 13 12 10 10 7 9 10 8 8 9 11 14 14 14 10 9 8 7 10 7 8 9 9 9 8 8 9 8 8 7 6 6 6
7 12 10 13 12 12 8 12 14 15 11 6 8 8 7 7 1 3 2 3 1 3 9 8 8 9 7 5 5 3 5 9 10 13 14 15 16 15 15 16 16 15 14 16 17 14 14 13 12 13 13 13 13 11 11 10 11 10 9 12 11 12 11 10 14 13 13 12 10 9 7 10 9 8 8 9 10 9 9 10 9 7 6 6 6 6
2 11 9 8 11 7 11 12 14 16 9 6 11 12 8 6 5 1 2 3 3 8 9 5 5 7 8 8 9 8 7 7 9 8 8 10 11 12 13 14 14 14 15 15 16 14 13 13 13 13 14 14 13 11 13 9 12 12 11 11 12 14 12 12 13 12 11 12 10 10 10 9 10 12 13 11 10 9 10 8 6 5 5 6 7 6
3 5 10 5 8 7 13 10 11 16 9 12 7 12 7 6 3 4 3 3 6 7 3 7 8 7 10 4 5 7 3 10 11 11 13 12 14 14 13 13 14 13 13 14 15 15 14 13 14 14 14 15 14 14 12 9 9 7 9 11 14 13 12 11 11 10 12 12 11 10 11 9 10 12 12 12 12 12 11 7 5 4 6 6 6 6
8 5 4 7 11 15 14 13 8 15 9 12 10 12 14 9 5 7 6 8 10 6 2 1 9 3 14 7 2 5 9 8 8 9 12 13 14 14 13 14 12 12 13 14 15 15 15 14 13 15 14 14 14 13 15 10 8 9 11 13 13 15 13 11 12 13 15 11 10 9 10 9 10 11 13 12 11 10 10 9 8 6 6 6 7 5
4 4 8 8 12 13 15 14 13 14 14 13 14 15 15 12 11 10 12 2 2 3 1 1 4 9 3 5 14 12 8 9 10 10 7 9 11 12 12 11 11 12 14 14 15 15 15 14 13 14 14 14 13 14 12 12 12 9 10 13 14 14 12 11 12 12 12 10 10 10 10 10 9 10 11 12 12 9 7 7 10 7 7 7 7 6
11 8 10 13 11 15 16 13 15 11 16 13 5 12 9 8 6 7 9 9 6 3 6 1 6 4 7 8 6 17 16 8 5 6 5 5 6 6 6 8 10 12 14 14 15 16 16 15 14 14 14 14 14 14 13 12 11 11 11 12 13 12 12 11 12 10 14 10 10 8 5 6 8 10 10 9 10 10 9 7 8 6 5 7 6 6
15 3 5 13 1 17 16 10 11 12 14 10 4 1 3 10 2 7 1 4 5 4 3 6 4 2 4 2 3 3 4 6 4 5 8 9 7 8 9 11 13 14 14 15 15 15 16 12 13 13 13 14 14 15 13 13 10 11 11 13 13 13 12 12 12 10 11 11 10 10 9 8 7 8 8 8 9 7 8 8 8 7 6 6 7 6
9 7 6 16 7 18 17 11 11 14 11 11 7 14 8 4 4 4 2 4 3 0 6 3 4 7 6 7 2 1 3 4 3 6 8 9 9 10 10 11 13 14 14 15 15 15 16 13 14 14 14 13 14 13 13 13 12 13 13 12 12 12 12 12 12 12 12 11 12 11 10 7 9 11 11 10 10 11 9 9 8 7 7 7 6 7
11 8 5 14 12 12 15 14 8 15 2 9 10 8 5 3 5 1 4 2 5 7 3 3 7 8 7 5 3 3 5 3 4 6 7 8 10 12 11 12 14 14 14 16 16 15 15 14 14 12 11 13 14 14 13 13 12 12 12 14 13 14 14 12 12 11 9 10 9 9 8 7 9 11 11 9 10 9 9 9 9 7 8 7 7 7
5 7 6 13 14 11 8 15 9 9 6 13 10 4 11 6 9 1 0 4 5 5 2 3 3 5 9 10 2 7 10 8 8 7 7 10 11 13 12 12 11 12 13 15 15 15 15 13 13 12 13 14 14 13 12 12 13 13 13 13 13 14 14 13 12 13 10 9 8 8 9 11 11 8 9 8 9 8 10 10 10 8 8 8 7 8
3 4 5 6 11 11 11 14 14 15 1 2 8 10 2 1 5 5 2 1 4 2 2 3 4 5 8 10 12 10 11 10 10 10 12 14 15 13 12 12 13 15 15 16 15 14 14 14 15 15 16 16 15 14 13 14 13 15 14 14 13 13 13 13 14 15 14 11 10 10 12 12 12 9 10 11 10 9 10 11 10 10 9 8 7 8
1 2 5 7 7 11 11 12 14 14 14 11 13 10 5 2 2 1 1 2 3 2 4 2 3 4 6 9 12 15 9 10 14 14 12 12 12 11 10 11 13 15 15 15 14 15 15 14 15 14 14 14 14 13 12 13 14 13 13 14 14 14 13 13 13 13 10 11 11 13 14 15 13 12 10 11 11 10 9 8 9 9 9 9 8 9
1 1 3 7 9 12 9 8 5 14 14 11 11 11 10 8 7 12 8 3 1 1 1 3 5 3 4 3 4 3 2 7 10 9 9 9 8 8 7 9 12 12 12 12 13 14 13 13 13 14 14 13 13 13 13 13 13 14 13 12 13 12 11 12 12 12 13 12 11 13 15 16 11 11 9 11 10 11 10 7 7 9 9 10 9 9
3 2 2 8 7 7 5 12 10 13 14 9 12 7 11 7 1 9 7 6 2 1 1 1 2 2 2 1 1 2 0 3 8 10 9 9 9 10 9 10 10 12 12 11 13 13 12 14 13 12 15 15 14 13 14 12 12 14 13 13 12 12 12 12 11 10 12 11 12 14 14 13 13 12 12 12 11 11 10 8 8 8 10 9 9 8
5 2 3 7 7 2 4 4 9 12 14 9 12 9 13 14 9 5 5 1 6 3 2 1 1 2 2 2 4 4 4 2 6 10 10 8 9 10 10 11 11 12 12 13 13 11 12 13 13 12 13 14 13 13 15 15 14 13 12 12 12 13 13 11 10 9 10 12 13 12 12 12 13 12 11 12 10 11 8 9 8 9 10 10 9 9
3 2 2 10 8 5 7 7 8 10 13 11 12 8 12 7 6 1 1 2 3 6 2 1 3 0 3 6 4 3 3 5 8 9 9 10 10 10 10 11 11 13 13 14 13 13 12 13 13 12 12 12 13 13 13 13 13 13 12 12 13 13 12 11 10 10 12 14 14 11 12 13 11 11 11 11 10 12 10 9 9 8 10 9 9 9
2 2 3 7 11 11 9 11 15 16 18 9 7 10 12 16 15 6 6 3 6 1 5 5 4 4 2 4 4 2 2 3 5 8 9 8 11 11 11 12 12 13 14 15 14 14 15 12 10 12 13 12 14 12 12 12 12 11 12 12 12 13 12 12 11 13 13 12 13 12 12 12 10 10 11 11 10 11 10 9 9 9 8 9 10 9
2 2 2 3 11 14 10 5 10 10 8 11 10 14 11 14 15 9 2 3 8 4 6 13 10 8 8 3 3 2 2 4 6 8 10 10 10 11 12 12 12 13 14 15 14 12 12 13 14 14 15 13 11 12 11 12 11 11 12 12 10 11 11 11 12 13 13 12 12 12 11 10 9 9 9 9 9 9 9 9 9 10 9 8 9 9
2 3 3 5 6 4 5 8 13 15 14 11 12 13 11 12 10 10 5 4 4 6 5 6 2 4 9 2 2 4 4 4 6 8 9 9 10 12 12 12 13 12 12 11 12 15 15 15 15 14 13 13 12 13 13 11 11 11 12 10 9 8 9 8 13 14 14 12 11 9 12 11 9 9 9 9 9 9 9 9 8 8 8 8 9 9
3 2 1 2 6 8 6 6 17 15 15 13 16 13 13 13 9 12 12 7 6 5 5 2 2 4 5 3 3 6 5 5 7 8 8 9 11 12 13 13 13 13 13 13 14 14 16 15 13 13 13 13 14 14 13 12 11 11 10 12 12 12 14 12 14 17 15 11 12 10 9 9 9 9 10 10 9 9 9 9 8 7 7 8 8 8
3 7 6 5 7 2 7 7 8 18 13 15 16 14 14 11 13 12 13 6 7 8 4 4 2 9 5 2 4 5 5 5 5 7 8 11 13 14 14 14 14 13 17 14 13 14 14 15 14 13 13 14 15 15 13 13 11 10 13 13 13 11 9 11 15 16 13 14 15 14 11 10 9 9 9 10 10 9 9 8 8 8 8 9 9 9
5 1 4 3 3 2 2 6 7 13 13 16 13 14 12 11 11 12 7 3 3 8 3 1 2 7 2 2 3 4 4 6 7 8 10 10 11 13 14 15 14 12 15 15 13 14 14 14 14 14 14 15 15 16 14 13 12 12 14 14 15 12 11 13 15 13 15 14 14 15 13 11 11 11 10 10 9 9 9 9 8 8 9 9 9 9
4 3 1 1 2 2 2 10 9 11 15 13 11 11 12 12 11 6 4 6 6 10 2 2 5 7 3 4 3 5 7 9 9 10 10 9 11 12 14 14 13 12 12 13 14 14 13 13 14 14 15 14 15 15 15 14 12 12 13 10 13 12 13 12 12 14 15 16 16 15 12 11 11 11 11 11 10 10 9 9 9 9 9 9 10 9
1 2 4 1 2 1 2 6 10 9 9 5 6 12 13 11 7 6 1 3 11 5 4 5 10 3 2 5 6 6 9 9 9 10 9 9 10 11 10 11 12 11 9 12 12 13 12 12 14 14 14 13 12 14 12 14 14 14 15 9 7 12 12 11 10 12 14 15 16 15 11 9 10 10 10 10 10 9 9 9 9 9 9 10 9 10
1 2 3 0 1 1 4 11 10 9 8 4 2 1 10 11 11 9 8 9 9 7 4 2 3 2 2 5 6 8 9 10 10 10 10 11 11 11 10 10 10 9 9 9 11 13 11 10 11 12 14 13 12 13 12 13 14 13 12 12 11 10 10 14 11 12 13 14 14 14 12 8 9 10 10 11 10 10 10 9 9 9 8 9 9 9
2 2 3 1 0 3 5 11 9 6 2 4 2 1 1 2 1 8 3 1 4 2 2 1 1 2 4 3 4 5 7 5 8 11 11 12 12 13 14 13 14 13 13 11 13 13 13 14 14 13 12 12 13 11 11 9 11 13 12 13 13 10 11 12 17 15 16 16 15 15 13 12 11 12 11 11 11 10 10 10 10 10 9 9 9 10
1 1 1 0 0 2 3 7 5 2 2 2 3 3 1 1 1 4 4 4 3 4 2 2 3 3 3 3 3 5 5 4 4 3 9 12 12 13 14 13 15 16 17 15 15 15 15 15 15 15 13 11 13 12 11 12 11 12 12 7 11 16 12 12 15 15 15 15 16 14 14 12 12 12 11 11 11 11 10 10 10 10 8 8 8 8
5 1 1 1 1 4 1 3 3 1 2 4 1 2 1 1 2 1 3 1 2 1 3 3 5 4 3 4 5 6 6 5 3 4 7 11 11 12 13 14 16 16 16 13 13 14 13 12 12 12 12 11 12 12 11 12 11 13 13 12 14 13 13 12 13 15 14 15 15 12 12 12 13 13 12 11 11 11 10 10 9 9 8 9 8 9
7 7 1 2 1 0 8 8 5 2 2 0 1 1 3 3 3 3 1 3 1 1 3 5 7 7 6 7 7 9 8 7 6 9 11 11 8 7 8 10 13 13 12 13 12 12 11 12 12 13 13 12 13 12 13 12 11 13 13 12 10 12 14 12 13 15 15 14 13 12 12 11 12 12 12 11 11 10 9 9 8 9 8 10 10 9
3 1 1 1 2 1 4 6 2 2 2 1 2 3 1 2 3 4 2 4 1 0 3 6 7 8 8 9 10 10 9 7 7 6 10 13 11 9 8 10 11 12 14 14 14 14 14 11 14 14 14 14 14 11 13 14 15 15 17 16 13 11 12 10 11 12 13 12 11 12 11 9 11 12 12 12 11 10 10 9 9 8 8 8 8 8
3 2 3 2 2 1 2 3 3 0 2 1 3 4 4 0 5 4 7 3 3 0 3 6 8 9 9 10 10 10 8 1 1 1 9 14 15 12 11 11 11 12 13 13 13 15 14 13 14 13 14 15 15 14 14 13 12 17 18 14 12 11 11 10 12 12 12 12 11 10 10 10 11 10 11 11 10 9 8 8 8 9 9 8 8 9
4 2 3 2 1 2 4 2 1 1 1 2 4 7 3 3 3 6 4 2 3 2 3 6 8 9 10 10 10 9 6 4 5 6 10 12 11 11 11 10 12 13 14 13 13 14 13 12 13 13 14 11 14 15 15 11 15 17 17 16 15 13 11 13 14 14 14 12 12 12 11 10 10 9 8 10 10 8 8 8 9 9 9 9 8 9
1 0 1 0 3 2 1 4 2 1 0 4 4 6 3 2 4 1 3 1 4 6 2 5 7 9 9 10 9 6 2 6 7 6 11 12 13 11 12 12 12 12 14 12 14 13 13 12 11 12 11 11 14 13 12 13 14 13 14 13 12 11 14 14 15 14 13 13 13 12 11 11 10 10 8 9 11 10 9 8 9 9 9 8 9 10
4 2 2 1 1 1 1 4 2 4 1 4 12 1 1 1 2 2 3 1 2 4 5 2 6 7 8 8 3 3 2 3 1 6 11 12 12 12 12 13 13 13 13 13 12 12 14 12 12 12 13 11 15 14 15 17 16 14 12 12 12 12 16 16 16 14 14 13 13 12 12 11 11 10 9 9 10 12 11 9 9 9 9 10 10 10
2 1 1 1 1 1 1 2 2 1 4 4 6 3 4 3 3 2 1 3 3 2 3 2 3 6 8 9 7 3 2 2 4 4 7 8 9 9 10 10 11 11 12 12 11 11 12 13 11 10 12 11 10 13 13 14 15 14 14 13 11 14 15 16 14 14 13 12 12 12 11 11 11 10 9 10 10 11 11 10 9 9 9 10 10 9
6 2 1 2 3 1 2 2 2 2 4 3 1 2 2 3 2 2 2 3 4 4 1 3 1 3 8 9 6 3 3 4 4 4 4 5 7 8 10 10 11 12 12 12 11 11 10 12 12 11 11 10 13 12 12 12 16 16 15 12 15 14 16 13 13 13 13 13 12 12 11 11 10 10 10 9 10 11 10 11 10 9 9 10 9 9
1 0 2 1 3 2 2 1 3 1 3 4 0 3 3 1 1 2 2 1 1 3 4 4 5 2 3 7 6 2 4 5 4 5 6 5 6 7 8 9 10 11 12 11 10 10 9 11 13 15 14 12 10 12 12 12 17 19 13 15 14 15 14 15 14 13 13 12 12 12 12 12 11 10 10 10 9 10 10 11 10 9 9 9 9 9
1 0 1 2 2 1 3 7 7 6 6 6 7 5 3 2 1 1 2 0 2 2 4 5 5 3 1 5 7 6 4 5 6 6 7 7 7 8 9 9 10 11 11 11 10 9 9 10 10 12 14 15 9 9 8 11 9 13 14 14 13 14 14 15 14 14 13 13 12 12 12 13 10 9 9 9 8 8 9 9 9 9 9 9 9 9
2 2 1 3 1 2 3 2 4 3 3 4 4 7 9 11 11 7 4 2 2 1 1 4 3 2 2 5 6 7 7 6 8 7 7 7 7 8 9 11 11 9 8 10 11 10 9 10 11 10 10 11 10 10 10 10 10 11 11 14 14 14 14 13 14 14 14 14 12 11 11 11 13 12 9 8 9 9 9 9 9 9 9 10 10 10
4 5 1 3 2 2 1 2 4 1 3 5 4 4 5 6 8 10 9 7 6 6 6 6 6 4 3 6 7 9 9 7 8 9 9 8 8 7 8 10 11 10 9 9 10 12 10 10 11 12 12 10 9 9 10 9 9 10 13 14 14 15 15 13 14 13 14 12 11 10 10 10 11 9 9 8 8 8 9 9 9 8 7 6 7 9
0 3 2 2 3 2 2 2 4 0 2 4 6 9 10 8 6 6 7 8 9 8 8 7 9 7 6 4 4 7 9 9 8 9 9 9 11 12 10 9 7 9 8 7 7 8 10 12 12 11 11 11 10 10 10 11 9 9 11 13 14 14 14 14 13 13 13 11 11 10 10 10 10 10 9 9 8 8 6 11 9 4 7 8 4 5
3 1 1 1 1 2 0 2 1 2 2 3 5 7 6 6 5 7 8 7 7 6 6 6 7 8 8 6 4 4 5 6 7 6 6 6 7 10 12 13 11 8 8 9 8 7 8 7 7 8 9 9 9 9 9 11 12 11 9 11 13 14 15 15 12 10 11 11 10 11 10 10 10 9 9 9 9 9 9 7 5 11 11 7 7 6
Wind_Direction
156 189 193 202 205 192 183 186 171 31 175 156 169 175 184 184 188 206 228 196 200 205 216 219 221 222 233 237 225 224 154 184 173 178 196 205 207 210 214 220 226 222 221 158 183 150 168 172 163 163 164 166 166 166 175 163 164 172 181 178 185 180 177 171 168 172 169 165 143 140 171 178 170 179 185 195 191 189 184 181 178 177 173 178 176 181
179 208 215 205 173 167 172 177 193 38 154 164 170 183 181 193 192 193 206 206 209 212 221 219 220 228 231 236 225 208 186 201 183 183 191 198 207 213 215 217 222 221 102 136 167 163 164 163 159 160 169 171 171 172 173 169 169 173 178 185 187 174 172 169 160 146 142 151 165 162 176 158 152 172 194 194 191 183 175 173 169 169 169 170 175 179
199 215 205 161 132 151 157 173 192 193 155 179 181 183 188 197 161 177 248 245 191 205 238 178 221 229 234 238 223 194 200 208 193 182 187 193 202 213 219 221 218 209 202 194 190 172 169 163 163 164 174 182 181 173 174 168 164 171 181 191 192 184 174 167 158 151 156 156 149 143 153 159 125 178 217 196 180 170 161 159 159 160 162 167 168 176
202 220 158 147 149 159 160 172 188 202 213 186 178 173 200 153 177 196 210 164 186 194 239 195 214 232 236 243 230 193 212 213 200 197 191 188 196 206 214 215 213 214 211 212 200 182 171 167 168 171 177 182 179 171 170 165 170 179 186 195 194 185 175 165 162 156 151 149 142 137 142 133 139 159 158 148 154 155 151 150 154 156 156 160 159 169
188 126 141 160 170 166 167 170 182 193 203 220 216 187 172 156 198 216 191 163 120 237 46 114 222 239 228 241 230 179 223 245 177 190 214 207 205 203 210 212 212 211 208 210 205 186 172 173 180 183 178 177 182 179 171 170 177 185 192 195 194 183 174 165 161 161 151 146 151 122 115 115 119 129 144 145 153 158 153 147 153 150 152 151 154 157
204 156 161 174 174 178 169 178 188 185 198 196 226 220 164 168 180 210 332 198 207 219 199 210 240 235 191 229 229 140 176 206 173 184 196 201 208 212 214 215 217 223 222 217 212 196 180 182 183 181 177 181 185 181 174 177 184 187 192 194 191 177 170 169 169 171 158 155 154 145 136 136 138 148 172 179 167 163 163 158 145 148 153 152 148 146
199 133 182 174 177 179 180 186 186 183 193 188 200 214 207 136 125 142 173 184 219 221 159 221 228 232 167 222 202 166 190 195 145 197 194 197 205 208 211 211 212 217 218 217 208 190 184 190 186 187 185 184 182 186 170 181 193 192 186 195 195 180 174 176 176 173 162 156 152 147 153 164 174 167 189 182 168 162 155 145 148 145 145 146 137 118
177 186 184 183 179 182 184 189 181 188 182 199 118 197 203 217 213 196 295 212 261 347 344 187 228 245 236 216 65 115 198 187 179 201 202 199 206 208 212 211 212 215 214 211 208 196 194 195 195 190 186 185 184 172 170 179 185 103 65 48 317 220 184 183 177 176 172 164 149 163 168 165 172 180 177 169 161 154 146 146 147 143 138 122 113 111
178 176 182 179 188 185 195 179 151 188 190 157 161 181 198 207 220 175 221 220 347 291 222 173 154 215 238 207 88 156 184 191 200 200 203 208 207 209 212 213 214 215 213 211 208 198 197 201 199 189 183 186 180 173 170 163 99 159 169 173 187 223 202 188 179 179 177 152 141 145 175 174 169 172 161 158 151 147 145 143 145 144 128 108 97 98
195 192 182 185 185 194 165 144 164 179 185 153 170 194 203 208 147 225 232 250 248 249 235 184 176 228 235 196 193 145 218 195 198 202 207 205 205 206 209 211 214 213 214 213 213 202 199 197 195 193 178 180 182 169 160 143 161 169 176 186 190 200 209 193 187 179 167 139 141 149 180 179 163 157 153 151 148 141 145 143 144 137 123 117 103 94
121 198 170 182 195 167 151 167 164 178 185 144 166 191 208 205 221 207 282 279 293 250 235 166 181 231 252 200 194 188 199 188 193 202 211 206 212 216 211 205 205 207 208 209 207 198 196 190 187 180 183 187 178 165 163 157 173 171 181 185 195 203 204 196 188 173 133 117 138 165 170 172 158 163 154 148 141 142 142 133 135 132 118 112 109 102
204 154 182 186 166 157 172 157 173 175 172 151 169 178 175 220 179 231 233 215 238 246 115 207 195 192 233 188 217 217 160 195 182 193 201 202 211 215 210 207 207 204 203 205 205 201 189 189 187 183 187 184 174 167 168 161 163 165 196 193 194 201 202 194 178 139 122 134 181 167 161 158 169 170 157 152 148 148 143 126 125 121 112 106 104 104
222 202 167 149 177 176 176 172 170 181 173 184 167 164 178 180 180 223 198 214 221 227 76 138 169 200 237 251 312 223 238 225 213 197 191 194 204 208 208 203 198 192 193 199 202 198 195 194 190 186 185 174 169 168 168 121 133 194 198 197 195 202 197 187 169 141 145 151 168 168 156 162 173 171 157 150 140 133 146 148 142 144 125 122 112 109
207 141 190 183 178 191 182 177 168 184 189 190 183 175 178 173 187 211 205 229 51 162 263 81 172 252 41 248 232 253 229 220 214 223 217 194 196 199 202 192 185 188 192 198 198 198 197 192 191 187 180 173 168 167 156 147 178 189 197 196 196 196 188 175 164 146 138 157 167 172 165 177 173 160 154 149 148 151 135 134 135 142 138 126 121 117
174 187 206 181 190 180 194 196 177 180 178 193 191 189 193 183 188 186 199 197 204 176 148 62 156 232 183 223 177 207 228 230 194 217 204 212 215 204 178 177 186 187 194 195 197 195 195 193 191 186 177 175 173 164 159 156 178 189 192 188 189 183 180 169 158 142 149 173 156 136 177 202 166 151 149 151 142 141 138 131 130 121 119 118 117 112
199 181 141 191 124 175 194 188 170 159 176 193 177 212 212 203 71 196 177 173 156 146 153 189 219 184 207 22 328 314 305 263 231 209 194 205 190 171 176 186 189 190 192 195 194 193 194 182 186 183 176 176 171 167 163 161 172 181 180 182 183 175 172 164 151 140 133 166 146 153 180 188 153 138 127 118 133 130 123 123 119 120 114 114 115 110
185 213 148 178 215 184 192 170 184 176 180 175 171 199 195 90 126 95 61 20 46 266 231 99 233 246 297 268 180 198 195 193 180 190 190 187 177 175 185 189 188 190 191 192 191 189 186 179 181 178 178 174 169 166 165 165 172 175 173 175 171 167 167 160 146 122 134 150 152 169 174 162 140 130 137 147 136 127 127 122 117 124 119 116 117 117
171 169 148 176 192 197 185 184 180 197 97 126 206 184 77 53 12 186 180 122 200 209 217 146 213 217 218 257 103 163 193 190 196 183 187 175 171 182 193 190 189 187 186 188 189 185 182 178 177 174 171 169 166 165 164 167 169 169 168 169 163 163 161 160 144 127 126 152 160 161 163 150 136 138 146 130 125 131 127 121 118 129 123 122 121 119
214 150 179 195 180 181 163 180 191 213 187 198 185 106 181 189 210 164 176 163 170 193 219 182 243 243 210 227 155 206 201 199 196 185 178 182 186 196 194 193 185 177 180 182 183 183 181 175 171 168 164 160 158 156 162 164 167 162 162 164 159 154 154 150 136 126 143 164 155 154 148 135 127 121 125 122 122 125 128 130 134 130 122 122 122 118
266 186 132 197 194 161 176 185 192 187 178 335 143 183 358 269 205 154 221 37 179 182 178 208 174 225 200 226 229 233 203 189 175 185 198 196 195 192 190 185 181 182 184 183 180 179 175 172 169 165 162 162 157 156 158 158 158 159 158 157 152 147 148 143 140 144 152 163 161 150 138 131 126 123 138 138 133 133 134 136 137 126 127 125 124 121
190 320 161 168 167 142 192 196 195 181 174 178 191 187 177 254 360 314 87 211 184 175 195 222 218 225 211 215 214 233 202 182 177 192 197 199 200 198 190 180 182 184 183 180 178 177 171 164 160 157 155 157 151 150 151 154 155 152 154 155 147 148 146 144 145 151 152 156 163 155 138 127 125 137 131 133 131 132 129 133 132 120 124 124 123 125
237 195 155 132 168 195 196 181 184 176 181 187 190 193 191 176 161 182 196 71 240 245 182 181 237 281 248 34 242 276 55 189 194 184 190 198 196 188 186 183 186 181 178 175 176 170 160 158 152 154 153 150 149 150 150 151 152 153 152 146 145 141 141 141 151 158 153 155 154 147 127 127 132 136 129 127 127 120 121 133 127 121 122 119 122 122
217 55 151 170 181 170 121 171 194 179 179 178 187 181 191 205 245 193 190 186 149 214 19 2 341 271 46 307 100 280 246 202 185 184 186 182 184 184 184 181 180 177 169 168 165 158 155 152 149 149 151 151 152 151 151 150 152 154 149 146 146 140 142 149 159 158 152 142 139 131 125 124 130 130 128 122 118 119 130 137 127 120 123 121 118 116
170 244 126 96 105 115 35 113 157 173 173 169 203 192 185 202 203 211 205 125 201 124 202 180 242 248 102 358 304 268 263 242 183 187 179 170 174 177 173 170 167 165 165 165 157 147 151 147 146 145 148 153 154 156 154 151 150 149 150 150 145 143 147 151 155 146 133 124 118 116 112 117 122 121 120 122 127 126 127 131 117 118 116 118 118 117
199 223 192 132 151 147 116 129 161 179 188 202 192 183 196 180 195 281 10 52 217 204 218 220 251 246 80 351 342 306 231 206 181 185 175 164 169 168 170 169 166 168 164 164 159 153 147 147 149 152 154 153 155 154 148 145 149 150 148 146 145 141 142 143 139 126 110 110 110 114 124 129 127 125 125 127 130 129 129 122 115 113 116 119 118 120
233 146 181 147 157 169 168 175 185 184 194 176 175 155 192 187 192 150 207 188 224 104 192 237 261 245 54 14 13 12 194 171 177 175 177 170 165 165 170 169 167 168 167 167 156 149 152 147 143 154 159 156 154 148 141 144 145 141 139 139 133 134 136 136 125 111 104 110 122 135 135 131 128 123 127 127 125 122 119 117 111 115 117 121 120 119
197 176 218 226 181 185 189 85 59 85 121 176 162 172 178 198 196 192 48 171 213 142 192 226 242 301 305 38 332 312 210 192 173 172 171 170 168 168 170 170 169 169 167 165 153 147 144 145 155 158 159 153 143 141 141 140 135 130 130 121 114 129 126 125 115 118 116 131 144 143 129 126 118 120 118 118 116 113 112 110 114 119 120 121 121 120
278 274 246 205 265 300 94 148 141 157 170 166 161 175 171 195 193 190 197 204 120 124 226 251 109 236 273 41 220 247 230 207 184 174 171 171 169 171 171 166 164 164 157 143 146 148 149 149 152 152 147 142 142 139 140 133 119 121 124 113 114 111 115 121 126 127 130 143 150 128 128 126 110 112 111 112 109 104 106 111 113 113 117 120 117 119
255 280 318 153 242 226 220 180 155 163 170 169 179 172 180 185 173 190 212 208 165 214 224 11 115 211 271 299 193 212 205 197 187 177 174 168 165 164 166 164 168 164 154 149 151 149 147 149 147 143 142 141 140 138 136 131 117 121 128 134 141 149 145 139 135 138 141 140 127 122 117 109 103 110 116 111 109 110 112 112 109 113 114 114 112 112
238 258 262 222 267 229 194 199 191 160 161 170 183 181 182 166 183 189 211 185 207 252 16 297 287 246 268 275 200 197 195 177 176 169 166 170 170 168 168 169 169 159 154 153 152 149 147 147 144 143 143 144 144 140 134 132 129 132 135 138 147 146 136 128 136 138 139 137 137 134 126 114 111 112 115 115 115 113 112 111 111 110 110 110 113 114
205 234 142 183 228 160 184 177 193 161 161 175 177 182 176 173 183 195 192 154 295 288 235 333 288 288 285 207 183 177 188 179 159 171 174 168 166 166 172 172 167 156 154 150 149 151 145 145 145 148 148 149 147 144 139 135 135 135 142 151 156 148 137 137 136 129 136 137 139 138 131 128 133 130 121 116 111 112 112 110 110 109 109 111 113 114
185 258 79 93 227 132 96 169 174 168 166 171 177 182 172 174 189 173 177 192 189 225 235 326 285 266 129 187 144 167 184 177 174 173 174 169 167 170 178 176 169 157 155 148 149 149 145 143 147 150 154 149 145 141 137 137 133 137 148 149 151 138 139 129 125 127 138 143 144 143 135 132 131 124 120 121 124 122 117 114 113 114 118 119 118 117
218 313 310 340 297 124 354 161 139 142 117 120 205 195 173 176 195 166 114 179 214 178 163 220 243 1 151 153 151 162 180 173 179 172 170 159 165 172 173 174 172 158 144 148 143 147 146 148 152 152 148 144 135 140 132 130 140 146 153 120 101 135 132 124 126 134 139 147 146 142 133 117 117 118 120 122 120 118 115 115 112 119 125 124 124 125
53 293 301 124 270 86 117 127 133 143 168 179 62 175 171 178 171 171 203 195 199 192 233 311 309 338 202 170 178 176 180 183 181 176 170 161 161 168 165 161 153 150 149 143 148 150 148 146 150 149 147 138 129 131 134 142 140 141 132 120 134 133 129 131 130 132 134 135 131 130 125 117 114 114 118 121 120 120 120 122 121 126 124 124 126 124
295 316 309 82 257 131 132 131 146 163 145 8 316 247 14 15 254 187 83 27 190 196 335 283 333 215 217 227 213 181 187 175 183 171 174 173 173 173 169 160 159 158 158 153 156 157 157 156 153 144 132 130 131 128 123 116 120 121 129 139 137 132 128 128 138 141 145 143 141 143 143 139 129 125 129 130 130 131 133 129 127 126 129 132 132 130
252 246 224 268 49 83 132 141 153 136 50 304 54 86 101 30 236 155 92 62 101 208 250 249 195 197 194 217 173 167 149 121 111 164 184 183 180 178 175 173 170 166 168 172 168 166 163 159 153 145 135 127 130 135 129 131 130 124 126 122 131 140 132 136 141 144 151 148 149 148 143 131 128 130 133 132 132 132 129 129 131 130 130 129 128 127
226 173 200 231 289 141 132 109 88 147 121 46 100 97 333 151 164 185 168 118 42 295 215 159 160 174 200 177 156 139 127 119 157 201 203 186 181 181 180 178 177 181 180 169 160 158 150 143 137 130 126 131 131 128 131 132 128 128 131 136 145 144 139 137 139 149 148 149 150 142 139 137 136 137 136 137 136 135 132 130 128 127 132 130 131 132
194 215 191 244 72 287 121 114 128 110 108 359 187 271 210 248 285 208 147 131 205 223 217 188 171 161 174 166 144 132 132 146 194 223 203 189 172 167 177 173 175 176 174 169 153 145 136 133 128 131 131 128 136 136 137 136 130 131 132 136 142 144 141 138 148 155 155 151 144 139 141 140 138 137 137 138 138 135 132 129 130 135 142 140 141 140
104 336 201 306 117 156 117 124 123 106 61 317 324 333 339 250 201 162 206 152 38 246 178 205 173 163 165 174 153 147 160 172 215 215 192 187 178 172 166 172 173 169 171 168 161 154 145 128 132 135 134 133 137 143 140 139 139 140 142 142 142 138 141 143 149 151 148 141 136 139 137 136 135 137 140 139 136 135 134 136 137 138 140 138 136 134
137 143 169 130 59 43 123 92 92 145 104 47 291 308 337 358 173 182 191 172 29 239 169 192 185 166 170 185 177 186 193 284 306 233 173 184 184 180 170 169 169 163 164 162 156 147 131 121 123 127 134 141 146 149 146 142 140 142 142 141 138 147 159 155 150 149 143 135 135 133 136 141 140 140 140 131 124 126 128 129 130 136 138 134 138 141
347 6 10 88 78 100 91 80 116 82 305 303 306 319 329 225 232 178 191 48 332 318 185 191 194 184 178 186 191 195 223 298 305 308 164 168 158 169 167 160 169 165 159 149 132 123 125 130 134 138 141 145 143 145 145 136 140 142 144 145 154 166 161 152 149 146 143 136 137 142 144 138 138 130 124 126 124 122 128 136 136 136 139 140 140 141
39 341 137 341 33 53 29 83 77 104 49 304 294 290 282 186 155 143 38 264 314 315 35 195 199 198 188 194 194 204 328 326 292 258 167 167 170 168 164 164 161 160 159 139 133 133 126 131 129 134 138 136 141 141 136 139 140 140 149 153 152 138 150 150 147 143 137 140 143 141 137 135 129 129 127 126 131 132 134 134 137 138 140 141 140 142
342 336 62 38 198 197 25 93 103 96 51 51 313 155 348 60 79 10 312 310 253 312 310 249 210 203 199 193 153 262 4 333 157 166 159 165 163 161 161 161 160 153 146 136 141 132 130 134 141 143 140 140 146 147 150 144 140 146 147 146 153 146 151 153 152 143 140 143 142 138 136 134 135 136 140 144 139 133 133 138 138 139 141 141 143 142
265 323 72 136 298 57 41 82 61 73 321 350 339 71 10 38 337 327 277 344 8 286 318 314 218 216 207 205 174 230 78 94 126 128 149 152 153 149 154 155 149 142 139 143 133 134 131 138 139 133 139 142 139 146 146 141 142 149 153 157 146 148 150 147 143 139 139 138 138 138 138 139 140 140 142 142 137 131 133 139 140 142 147 148 148 147
4 35 288 64 314 7 44 88 66 332 286 307 344 20 341 333 322 302 257 283 333 359 286 290 307 197 216 214 192 205 64 53 79 133 133 137 143 146 150 150 143 143 144 141 138 139 140 136 138 137 139 145 147 147 148 147 146 153 154 149 147 148 147 140 139 141 142 142 139 138 139 140 142 144 143 144 139 135 138 140 145 145 150 151 151 153
296 359 310 18 77 220 97 93 267 326 333 332 259 198 237 233 110 205 232 290 245 315 317 309 316 297 220 211 194 167 52 70 106 98 91 106 122 126 130 133 138 142 145 138 134 149 137 133 135 146 145 150 149 150 152 156 153 156 152 149 152 153 147 145 143 143 145 145 145 143 142 140 142 146 147 147 145 141 144 147 151 150 154 155 155 156
348 328 316 69 337 333 70 347 17 355 330 357 340 332 171 159 32 269 257 294 7 345 333 323 318 326 296 178 192 165 119 110 119 109 117 123 125 133 135 135 140 142 138 143 145 135 124 129 133 139 146 149 154 150 147 151 151 141 141 151 148 149 147 148 148 144 146 148 146 144 145 143 147 147 148 146 143 142 145 149 152 150 153 157 156 156
59 1 1 42 332 32 98 9 339 312 301 311 335 359 358 346 347 352 351 335 317 258 19 350 308 38 105 142 156 121 112 119 125 118 113 119 125 134 141 143 142 137 146 143 143 139 132 138 137 142 145 148 151 149 149 149 142 145 143 145 149 149 147 146 149 151 152 150 147 147 147 145 141 144 147 146 144 145 148 155 156 158 160 165 161 159
289 321 36 322 95 103 169 41 2 284 353 18 12 26 4 353 336 337 350 356 2 20 27 37 34 33 75 111 123 120 125 131 136 130 127 124 123 130 137 144 144 135 127 135 144 144 144 143 149 152 156 153 148 144 153 144 142 146 150 152 152 151 149 145 146 150 146 144 145 143 142 143 152 150 144 142 144 146 154 161 163 157 155 155 166 166
294 28 310 238 103 76 77 33 347 31 85 7 359 3 350 351 339 331 353 12 14 10 10 26 45 46 56 57 118 136 141 146 153 153 152 152 147 138 130 126 119 120 124 121 139 143 147 153 152 157 158 156 151 144 149 150 152 151 154 154 154 152 145 143 145 146 147 148 147 145 145 149 151 147 144 145 143 133 96 31 40 72 158 165 60 40
32 336 258 46 99 112 119 357 304 294 288 289 327 342 348 353 350 17 17 359 356 11 12 27 58 59 61 62 70 124 132 146 148 122 105 120 136 145 145 137 134 124 121 128 122 135 142 152 151 141 140 142 145 149 149 150 153 160 159 155 154 151 147 148 145 144 148 151 151 150 152 151 149 149 147 145 143 142 140 144 89 43 41 83 108 113